TimeAEST,TemperatureF,Dew PointF,Humidity,Sea Level PressureIn,VisibilityMPH,Wind Direction,Wind SpeedMPH,Gust SpeedMPH,PrecipitationIn,Events,Conditions,WindDirDegrees,DateUTC
12:00 AM,47,29,36,29.99,25,West,17.3,,,,Partly Cloudy,260,2013-08-20 14:00:00
12:00 AM,46.4,28.4,50,29.98,-9999.0,West,17.3,-,N/A,,Clear,260,2013-08-20 14:00:00
12:30 AM,46.4,28.4,50,29.98,-9999.0,West,18.4,-,N/A,,Clear,260,2013-08-20 14:30:00
1:00 AM,46,29,40,29.98,,West,17.3,,,,,260,2013-08-20 15:00:00
1:00 AM,46.4,30.2,53,29.98,-9999.0,West,17.3,-,N/A,,Clear,260,2013-08-20 15:00:00
2:00 AM,45,30,43,29.97,,West,15.0,,,,,270,2013-08-20 16:00:00
2:00 AM,44.6,30.2,57,29.95,-9999.0,West,15.0,-,N/A,,Clear,270,2013-08-20 16:00:00
2:30 AM,46.4,30.2,53,29.95,-9999.0,WSW,18.4,-,N/A,,Clear,250,2013-08-20 16:30:00
3:00 AM,45,31,45,29.96,25,West,16.1,,,,Partly Cloudy,270,2013-08-20 17:00:00
3:00 AM,44.6,30.2,57,29.95,-9999.0,West,16.1,-,N/A,,Clear,270,2013-08-20 17:00:00
4:00 AM,46,30,42,29.96,,West,16.1,,,,,260,2013-08-20 18:00:00
4:00 AM,46.4,30.2,53,29.95,-9999.0,West,16.1,-,N/A,,Clear,260,2013-08-20 18:00:00
4:30 AM,44.6,30.2,57,29.95,-9999.0,West,16.1,-,N/A,,Clear,260,2013-08-20 18:30:00
5:00 AM,45,31,46,29.97,,West,16.1,,,,,260,2013-08-20 19:00:00
5:00 AM,44.6,30.2,57,29.95,-9999.0,West,16.1,-,N/A,,Clear,260,2013-08-20 19:00:00
5:30 AM,44.6,32.0,61,29.95,-9999.0,West,11.5,-,N/A,,Clear,280,2013-08-20 19:30:00
6:00 AM,45,32,49,29.98,19,West,12.7,,,,Partly Cloudy,280,2013-08-20 20:00:00
6:00 AM,44.6,32.0,61,29.98,6.2,West,12.7,-,N/A,,Partly Cloudy,280,2013-08-20 20:00:00
6:30 AM,46.4,32.0,57,29.98,6.2,West,12.7,-,N/A,,Partly Cloudy,280,2013-08-20 20:30:00
7:00 AM,46,32,46,30.00,,WNW,11.5,,,,,290,2013-08-20 21:00:00
7:00 AM,46.4,32.0,57,29.98,6.2,WNW,11.5,-,N/A,,Partly Cloudy,290,2013-08-20 21:00:00
7:30 AM,48.2,32.0,54,30.01,6.2,West,13.8,-,N/A,,Partly Cloudy,280,2013-08-20 21:30:00
8:00 AM,50.0,33.8,54,30.01,6.2,West,13.8,-,N/A,,Partly Cloudy,280,2013-08-20 22:00:00
8:30 AM,53.6,32.0,44,30.01,6.2,West,10.4,-,N/A,,Partly Cloudy,280,2013-08-20 22:30:00
9:00 AM,54,33,33,30.01,19,West,12.7,,,,Partly Cloudy,270,2013-08-20 23:00:00
9:00 AM,53.6,33.8,47,30.01,6.2,West,12.7,-,N/A,,Partly Cloudy,270,2013-08-20 23:00:00
9:30 AM,55.4,32.0,41,30.01,6.2,West,19.6,-,N/A,,Partly Cloudy,270,2013-08-20 23:30:00
10:00 AM,57,33,27,30.00,,West,19.6,,,,,270,2013-08-21 00:00:00
10:00 AM,57.2,32.0,38,29.98,6.2,West,19.6,-,N/A,,Partly Cloudy,270,2013-08-21 00:00:00
10:30 AM,57.2,32.0,38,29.98,6.2,West,20.7,-,N/A,,Partly Cloudy,260,2013-08-21 00:30:00
11:00 AM,59,31,23,30.00,,West,17.3,,,,,260,2013-08-21 01:00:00
11:00 AM,59.0,32.0,36,29.98,-9999.0,West,17.3,-,N/A,,Clear,260,2013-08-21 01:00:00
11:30 AM,60.8,30.2,31,29.98,-9999.0,West,18.4,-,N/A,,Clear,260,2013-08-21 01:30:00
12:00 PM,61,29,19,29.97,19,West,17.3,,,,Partly Cloudy,260,2013-08-21 02:00:00
12:00 PM,60.8,30.2,31,29.95,-9999.0,West,17.3,-,N/A,,Clear,260,2013-08-21 02:00:00
12:30 PM,60.8,32.0,34,29.95,-9999.0,WSW,15.0,-,N/A,,Clear,250,2013-08-21 02:30:00
1:00 PM,61,29,18,29.95,,West,12.7,,,,,260,2013-08-21 03:00:00
1:00 PM,60.8,28.4,29,29.95,-9999.0,West,12.7,-,N/A,,Clear,260,2013-08-21 03:00:00
1:30 PM,62.6,30.2,30,29.92,-9999.0,West,13.8,-,N/A,,Clear,270,2013-08-21 03:30:00
2:00 PM,61,29,18,29.94,,SW,16.1,,,,,230,2013-08-21 04:00:00
2:00 PM,60.8,28.4,29,29.92,-9999.0,SW,16.1,-,N/A,,Clear,230,2013-08-21 04:00:00
2:30 PM,59.0,30.2,34,29.92,-9999.0,WSW,16.1,-,N/A,,Clear,240,2013-08-21 04:30:00
3:00 PM,60,28,19,29.93,19,WSW,15.0,,,,Partly Cloudy,250,2013-08-21 05:00:00
3:00 PM,60.8,28.4,29,29.92,-9999.0,WSW,15.0,32.2,N/A,,Clear,250,2013-08-21 05:00:00
3:30 PM,59.0,30.2,34,29.92,-9999.0,WSW,13.8,-,N/A,,Clear,240,2013-08-21 05:30:00
4:00 PM,59,31,22,29.93,,WSW,13.8,,,,,240,2013-08-21 06:00:00
4:00 PM,59.0,30.2,34,29.92,-9999.0,WSW,13.8,-,N/A,,Clear,240,2013-08-21 06:00:00
4:30 PM,60.8,26.6,27,29.92,-9999.0,SW,12.7,-,N/A,,Clear,230,2013-08-21 06:30:00
5:00 PM,58,30,22,29.94,,WSW,12.7,,,,,240,2013-08-21 07:00:00
5:00 PM,59.0,30.2,34,29.92,-9999.0,WSW,12.7,-,N/A,,Clear,240,2013-08-21 07:00:00
5:30 PM,57.2,30.2,36,29.95,-9999.0,WSW,10.4,-,N/A,,Clear,250,2013-08-21 07:30:00
6:00 PM,57.2,30.2,36,29.95,-9999.0,WSW,9.2,-,N/A,,Clear,250,2013-08-21 08:00:00
6:30 PM,55.4,30.2,38,29.95,-9999.0,West,15.0,-,N/A,,Clear,260,2013-08-21 08:30:00
7:00 PM,55,30,26,29.96,,West,16.1,,,,,260,2013-08-21 09:00:00
7:00 PM,55.4,30.2,38,29.95,-9999.0,West,16.1,-,N/A,,Clear,260,2013-08-21 09:00:00
7:30 PM,53.6,30.2,41,29.95,-9999.0,WSW,17.3,-,N/A,,Clear,250,2013-08-21 09:30:00
8:00 PM,53,32,33,29.98,,West,12.7,,,,,270,2013-08-21 10:00:00
8:00 PM,53.6,32.0,44,29.98,-9999.0,West,12.7,-,N/A,,Clear,270,2013-08-21 10:00:00
8:30 PM,51.8,33.8,50,29.98,6.2,West,9.2,-,N/A,,Partly Cloudy,270,2013-08-21 10:30:00
9:00 PM,52,33,36,29.99,25,West,10.4,,,,Partly Cloudy,280,2013-08-21 11:00:00
9:00 PM,51.8,33.8,50,29.98,6.2,West,10.4,-,N/A,,Partly Cloudy,280,2013-08-21 11:00:00
9:30 PM,51.8,33.8,50,29.98,6.2,West,8.1,-,N/A,,Partly Cloudy,280,2013-08-21 11:30:00
10:00 PM,52,33,35,29.99,,WNW,8.1,,,,,300,2013-08-21 12:00:00
10:00 PM,51.8,32.0,47,29.98,6.2,WNW,8.1,-,N/A,,Partly Cloudy,300,2013-08-21 12:00:00
10:30 PM,53.6,33.8,47,29.98,-9999.0,NW,9.2,-,N/A,,Clear,310,2013-08-21 12:30:00
11:00 PM,52,33,37,30.00,,NW,8.1,,,,,320,2013-08-21 13:00:00
11:00 PM,51.8,33.8,50,29.98,-9999.0,NW,8.1,-,N/A,,Clear,320,2013-08-21 13:00:00
11:30 PM,51.8,33.8,50,29.98,-9999.0,NW,10.4,-,N/A,,Clear,320,2013-08-21 13:30:00